Lapse_Rate
6.3 6.7 6.3 5.6 5.5 6.1 7.2 6.8 8.1 7.2 6.8 6.4 6.5 6.3 5.6 6.2 6.2 5.8 5.6 5.5 6.0 6.0 5.9 5.8 5.3 5.1 4.9 4.8 4.9 5.1 5.2 5.1 5.0 5.1 5.4 5.5 5.5 5.6 5.4 5.7 5.9 5.7 5.7 5.8 5.8 5.8 5.9 5.9 5.9
6.2 6.9 5.8 5.4 5.7 7.2 7.7 7.1 7.5 7.0 6.8 6.6 6.5 5.8 6.3 6.0 6.1 5.7 5.4 5.2 5.1 5.7 5.8 5.8 5.5 5.1 5.0 4.9 5.0 5.1 5.1 5.1 5.0 5.0 5.5 5.7 5.7 5.7 5.7 5.8 5.7 5.6 5.8 5.9 5.9 5.9 6.1 6.1 6.2
6.2 6.8 5.8 5.3 6.7 7.6 7.3 7.3 6.7 6.8 6.4 6.0 6.4 5.8 6.0 5.5 5.2 5.5 5.4 5.4 5.4 5.7 5.7 5.5 5.5 5.4 5.3 5.3 5.3 5.1 5.1 5.1 5.0 5.1 5.3 5.7 5.6 5.6 5.7 5.6 5.6 5.7 5.9 6.2 6.1 6.1 6.2 6.3 6.3
6.5 5.6 6.6 7.0 6.9 7.6 7.0 7.2 7.1 6.7 6.5 6.3 5.9 5.7 5.3 5.5 5.2 5.5 5.4 5.4 5.3 5.4 5.6 6.0 5.6 5.4 5.3 5.1 5.2 5.3 5.2 5.2 5.1 5.1 5.6 5.6 5.7 5.7 5.6 5.8 5.8 6.0 6.2 6.2 6.1 6.4 6.3 6.2 6.1
6.0 5.9 5.5 7.2 7.3 7.3 6.8 6.8 7.2 6.6 6.6 6.0 6.2 5.3 5.4 5.2 5.1 5.1 5.6 5.0 5.0 5.2 5.5 5.7 5.5 5.1 5.1 4.9 5.0 5.3 5.2 5.6 5.3 5.1 5.8 5.8 5.8 5.6 5.6 5.8 6.0 6.2 6.1 6.1 6.3 6.2 6.2 6.2 6.3
5.8 6.0 5.8 5.8 6.8 6.9 6.6 6.7 6.5 6.6 6.6 5.8 6.2 5.4 5.3 5.1 5.0 4.8 5.1 5.3 5.4 5.3 5.2 5.6 5.3 4.8 5.0 4.8 4.7 5.1 5.4 5.1 5.3 5.5 5.6 5.6 5.6 5.6 5.6 5.9 6.2 6.1 6.1 6.3 6.2 6.3 6.3 6.3 6.5
5.5 5.8 5.6 6.3 7.2 6.7 6.7 6.6 7.0 6.6 6.3 6.1 6.0 5.4 5.3 5.2 5.2 5.4 5.3 4.8 5.1 5.1 4.9 5.2 4.9 4.8 4.9 4.9 4.9 5.0 5.1 5.1 5.2 5.4 5.5 5.5 5.6 5.7 5.8 6.1 6.1 6.0 6.2 6.2 6.2 6.2 6.2 6.4 6.5
6.0 5.9 6.4 6.6 6.4 7.1 6.6 6.7 6.5 6.7 6.6 6.2 5.8 5.4 5.5 5.2 5.3 5.7 5.3 5.0 5.1 4.9 4.2 4.7 4.9 4.7 4.7 4.9 4.9 5.0 4.9 4.9 5.3 5.4 5.5 5.4 5.7 5.8 6.1 6.1 6.0 6.1 6.2 6.1 6.1 6.2 6.3 6.4 6.6
5.9 6.1 6.2 5.6 6.7 6.6 6.4 6.4 6.4 6.4 6.5 6.3 6.1 5.9 5.7 5.5 5.4 5.6 5.5 5.5 4.8 5.1 4.0 4.0 4.4 4.3 3.9 3.6 4.0 4.4 4.6 5.3 5.4 5.4 5.5 5.5 5.5 5.7 6.0 6.3 6.0 6.1 5.8 6.0 6.1 6.1 6.3 6.3 6.3
5.6 5.4 6.1 5.5 6.2 7.0 6.4 6.4 6.2 6.4 6.6 6.4 6.1 5.4 5.6 5.7 5.6 6.0 5.6 5.7 5.5 5.0 5.0 4.3 3.9 3.7 4.0 3.7 3.7 4.2 4.9 5.3 5.4 5.4 5.4 5.3 5.7 5.6 5.7 6.0 5.6 5.7 5.9 6.0 6.0 6.1 6.2 6.0 6.3
5.2 5.7 5.5 5.0 5.6 6.1 6.8 6.6 6.6 6.3 6.3 6.0 5.8 5.6 5.7 5.7 5.6 5.9 5.9 5.8 5.6 5.3 5.2 4.7 4.9 4.5 4.2 4.3 3.9 5.0 5.3 4.9 5.3 5.5 5.5 5.5 5.2 5.6 5.6 5.8 5.7 5.7 5.7 6.0 6.1 6.2 6.4 6.0 6.2
5.2 5.9 5.7 6.2 5.3 6.2 6.3 5.9 6.4 6.4 5.9 6.3 5.8 5.6 5.9 6.0 5.8 5.7 5.5 5.6 5.4 5.6 5.5 5.6 5.3 5.2 5.2 4.7 5.3 5.4 5.4 5.2 5.8 5.4 5.3 5.4 5.5 4.9 6.2 5.6 5.4 5.8 6.0 6.0 6.6 6.5 6.6 6.0 5.9
6.1 6.3 6.2 6.1 6.0 6.3 5.6 5.8 6.0 6.3 6.1 6.1 5.8 5.7 6.0 5.9 6.1 5.9 6.0 5.8 5.8 5.5 5.8 5.6 5.8 5.5 5.6 5.4 5.4 5.1 5.4 5.5 4.6 5.0 4.9 5.3 4.5 4.6 5.5 5.3 5.4 5.3 5.7 5.9 6.1 6.3 6.3 6.2 6.2
6.2 6.3 6.0 5.9 6.0 6.2 5.8 6.1 6.5 6.3 6.0 6.0 5.8 5.8 6.0 6.1 6.0 5.7 5.5 5.8 5.5 5.6 5.4 6.1 6.1 5.8 5.7 5.9 5.7 5.0 4.9 5.1 5.0 5.6 5.3 5.0 5.8 6.1 5.7 5.8 5.0 5.2 5.7 6.1 6.1 6.6 6.0 5.7 6.7
6.3 6.2 5.5 5.7 5.9 6.2 6.1 6.1 6.0 5.9 5.8 6.0 5.9 5.9 6.1 6.2 6.1 5.8 5.6 5.6 5.3 5.1 5.9 5.9 5.7 5.7 5.6 5.5 5.2 5.2 4.8 4.8 5.0 5.4 5.9 5.5 5.8 5.0 5.8 5.5 5.6 5.0 5.5 5.9 6.1 6.5 6.1 6.0 6.3
5.8 5.6 5.3 6.0 6.0 6.0 6.0 5.6 5.4 5.7 5.9 5.8 5.8 5.7 6.2 6.0 6.0 5.8 5.5 5.4 5.4 5.6 5.9 6.4 6.2 6.0 5.8 5.3 4.9 5.1 4.8 4.9 5.3 5.3 6.2 5.5 5.5 5.5 5.4 5.2 5.4 6.1 5.8 5.4 6.5 6.5 6.4 6.4 6.5
5.4 5.9 5.8 5.8 5.7 6.2 5.8 6.0 5.9 5.9 6.0 5.6 6.0 5.9 6.2 5.6 5.8 5.7 5.4 5.2 5.2 5.7 6.1 5.6 5.7 6.2 5.7 5.7 5.4 5.3 4.9 5.3 5.4 5.1 4.7 5.2 5.4 5.1 4.8 4.8 5.9 6.2 5.7 5.3 5.7 6.3 6.3 6.4 5.7
5.9 6.5 6.2 5.3 5.8 5.9 6.0 6.2 5.9 5.6 5.7 5.4 5.4 5.6 6.3 5.9 5.8 5.7 5.3 5.2 5.1 5.9 6.1 6.0 5.9 6.3 6.1 5.3 5.5 5.3 5.6 5.8 4.7 5.3 5.4 4.8 5.4 5.3 5.6 6.1 5.4 6.1 6.3 5.5 6.5 6.7 6.4 6.9 6.5
7.4 6.6 6.3 6.2 7.0 5.8 5.5 6.1 5.7 5.0 5.5 5.4 5.6 5.6 5.5 6.0 5.6 5.5 5.4 5.0 5.0 5.7 6.0 6.1 6.0 6.1 6.2 6.2 5.8 5.4 5.5 5.1 4.8 5.1 5.3 4.5 5.5 5.5 5.8 5.7 5.9 5.7 5.8 6.5 6.9 7.1 6.0 5.7 6.2
8.8 7.4 6.8 5.8 6.4 6.2 5.7 5.8 5.7 5.0 5.4 5.5 5.6 5.6 5.7 5.6 6.1 5.4 5.5 5.4 5.3 5.6 5.8 5.9 6.2 6.0 5.9 6.0 5.8 5.3 5.2 5.2 5.1 4.9 5.1 5.4 5.7 5.7 5.4 5.6 5.4 4.5 5.3 5.7 6.1 6.1 5.8 6.1 6.3
8.9 9.2 8.1 7.6 6.9 6.5 5.8 5.4 5.6 5.7 5.6 5.3 5.7 5.9 5.4 5.3 5.5 5.3 5.5 5.3 5.2 5.7 5.8 5.8 6.0 5.9 5.9 5.7 5.9 5.4 5.8 4.7 5.0 5.6 5.5 5.7 5.7 5.7 5.7 5.9 5.4 5.4 5.8 6.3 6.3 5.9 5.7 5.9 6.0
8.9 9.2 8.6 8.3 7.6 7.1 7.1 7.0 6.6 6.1 6.0 6.0 6.2 5.8 5.4 5.5 5.6 5.8 5.5 5.5 5.2 5.3 5.9 6.0 6.1 6.0 6.0 5.9 5.8 5.8 5.6 5.2 5.3 5.6 5.7 5.7 5.8 5.8 5.8 6.1 5.9 5.6 6.5 6.6 5.8 6.2 6.3 6.4 6.6
9.3 9.0 8.8 8.8 8.7 8.6 7.9 7.2 6.9 6.5 6.4 6.2 5.7 5.3 5.3 5.0 5.2 5.3 5.4 5.8 5.5 5.5 5.5 6.3 6.2 6.0 6.0 5.9 5.9 5.6 5.4 4.7 5.2 5.0 5.4 5.6 5.7 5.8 5.8 6.1 6.1 5.7 5.7 5.8 6.0 6.1 6.7 6.6 6.5
9.6 9.5 9.2 9.2 9.3 9.5 9.2 8.0 7.4 6.2 6.9 6.1 5.7 5.6 5.2 5.5 5.2 5.3 5.4 5.5 5.4 5.4 5.5 6.1 6.2 6.1 6.0 6.0 5.9 5.9 5.8 5.4 5.4 5.7 5.6 5.6 5.6 5.6 5.7 5.8 5.7 5.6 5.7 5.7 5.7 5.9 6.2 6.3 6.2
8.8 8.9 9.5 9.6 9.6 9.4 8.0 8.6 8.6 6.9 6.2 5.7 5.5 5.4 4.7 5.6 5.2 5.0 6.0 5.2 5.2 5.5 5.4 5.6 6.0 6.1 6.1 6.2 6.1 5.9 5.7 5.5 6.0 6.1 5.5 5.5 5.5 5.1 5.6 5.6 5.7 5.7 5.7 5.7 5.7 5.8 6.0 6.2 6.0
9.0 9.2 9.6 8.8 8.5 8.5 7.7 8.2 6.9 7.3 7.0 6.7 5.7 4.9 5.1 5.3 5.1 5.5 5.6 6.3 5.5 5.5 5.2 4.9 5.9 6.0 5.9 6.1 6.1 6.0 5.8 5.7 5.9 5.4 5.5 5.7 5.4 4.5 5.4 5.1 5.6 5.7 5.8 5.9 5.9 5.9 5.9 6.4 6.1
9.1 9.3 9.4 9.0 8.7 8.6 8.0 6.8 6.5 6.7 6.8 6.8 6.2 5.4 5.4 6.2 5.4 5.2 5.2 5.4 5.9 5.5 5.3 5.3 5.5 5.7 5.9 5.8 6.0 5.9 5.9 5.9 5.7 5.4 5.5 5.1 5.1 5.0 5.6 5.5 5.5 5.7 6.0 5.9 5.7 5.6 5.6 5.7 5.8
9.0 9.5 9.3 9.2 8.7 8.7 7.5 6.2 6.8 5.5 6.6 6.4 6.3 6.1 5.4 5.7 5.5 5.5 5.2 5.1 5.6 5.5 5.1 5.0 5.3 5.3 5.8 5.9 5.9 5.9 5.9 5.9 5.6 5.9 5.6 5.8 5.2 4.5 5.1 5.1 5.5 5.7 5.6 5.6 5.6 5.6 6.0 5.7 5.4
9.4 9.5 9.4 9.2 8.2 8.0 7.2 5.8 5.4 6.2 6.4 6.1 5.7 6.1 6.0 5.2 5.2 5.9 5.9 5.1 5.9 5.0 5.1 5.0 5.8 5.7 5.9 5.8 5.9 5.7 5.6 5.7 5.7 5.7 5.9 6.0 5.3 5.2 5.9 5.3 5.7 5.9 5.9 5.6 5.6 5.5 5.7 5.3 5.5
9.4 9.4 9.7 9.4 8.8 7.2 8.4 6.1 6.1 5.7 6.3 6.3 5.7 5.6 5.4 6.1 5.7 5.9 4.7 4.8 4.9 4.9 5.1 5.0 5.1 5.4 5.8 5.7 5.6 5.7 5.7 5.8 5.9 5.6 5.4 5.4 5.4 5.5 5.6 5.5 5.5 5.5 5.6 5.7 6.1 5.5 5.5 5.6 6.0
Wind_Speed
9 12 9 3 1 4 9 11 8 17 16 22 20 17 23 22 12 10 3 13 19 15 16 14 16 17 17 17 17 16 16 16 16 17 16 15 15 15 15 15 16 15 14 15 14 14 13 11 11
10 14 1 4 4 4 7 18 13 15 19 20 13 18 23 24 22 13 11 14 13 13 17 14 13 17 18 18 17 16 14 16 16 17 16 16 15 14 15 15 15 14 14 14 13 11 11 11 10
11 15 0 3 3 5 12 9 18 18 18 13 20 18 11 9 10 14 13 16 16 15 16 15 15 16 19 18 18 17 16 15 16 16 15 15 14 13 14 15 14 13 13 12 11 10 10 11 9
5 3 6 6 7 14 16 14 14 14 17 18 17 18 18 20 15 13 17 18 16 16 18 18 17 18 20 18 18 17 18 16 16 15 13 13 13 12 13 13 12 11 10 9 8 10 10 10 8
4 3 1 8 16 10 15 24 24 1 10 24 22 20 15 22 24 21 15 17 17 16 18 19 20 18 16 15 17 19 18 16 15 12 11 11 11 11 11 12 11 9 9 9 11 12 10 8 6
1 2 4 7 14 14 11 10 17 18 12 26 24 19 19 24 21 19 12 20 19 17 19 21 19 19 19 17 17 20 18 13 10 10 9 11 10 10 9 10 10 8 8 8 8 9 8 7 5
5 2 6 13 13 9 13 10 11 14 18 18 23 18 16 19 20 18 19 17 13 23 19 18 18 19 21 16 17 17 16 9 5 7 8 10 10 10 10 10 8 7 7 6 6 7 7 7 6
7 6 3 7 5 2 14 11 20 14 13 22 28 15 13 16 24 21 20 16 18 19 17 13 14 15 18 17 14 15 14 10 8 9 10 13 14 12 10 11 9 7 6 6 8 9 8 8 9
18 4 6 2 14 7 13 12 12 12 10 15 14 26 18 22 23 24 10 18 8 8 15 14 13 13 11 11 14 11 8 10 9 10 12 12 13 15 15 9 11 9 11 13 15 13 12 12 12
6 3 2 9 2 6 15 13 14 12 12 13 24 24 20 20 21 19 15 15 19 5 10 13 9 10 10 11 10 9 7 4 8 11 15 17 17 15 15 15 17 17 17 18 17 15 15 15 12
1 3 2 13 18 18 13 9 9 12 13 23 22 18 20 19 16 13 16 20 14 13 15 3 6 5 3 6 10 10 10 9 3 15 14 14 10 11 15 14 13 14 18 13 15 13 16 18 16
7 7 9 13 11 13 10 15 11 16 9 17 21 18 17 19 13 17 16 11 8 17 22 12 9 6 8 10 9 9 7 11 19 18 14 5 8 6 11 6 14 12 11 15 13 6 1 5 6
10 7 6 10 11 16 11 6 8 15 15 18 19 18 15 19 12 20 23 17 15 24 19 9 8 8 9 9 7 9 9 9 18 10 16 10 3 5 15 5 14 9 9 7 6 5 5 2 7
10 11 9 2 7 14 11 10 9 16 15 16 16 18 15 15 18 14 21 19 17 17 17 22 16 14 20 10 16 8 23 23 11 4 10 19 16 4 4 5 12 13 5 9 8 1 4 2 6
16 10 9 4 5 7 7 7 7 16 7 15 17 14 12 11 15 13 15 14 15 16 18 14 9 7 4 4 3 1 2 10 5 6 4 8 19 8 10 10 7 12 13 9 7 5 5 3 4
8 9 5 3 9 3 9 5 5 13 17 15 11 7 13 10 14 14 13 13 12 13 12 16 13 12 7 3 4 8 14 10 6 10 6 3 5 10 27 6 6 14 16 16 4 4 4 1 3
6 4 5 4 17 8 8 6 8 9 16 11 3 17 16 12 6 14 14 13 13 14 12 9 12 12 7 5 15 6 12 3 4 16 14 4 1 7 21 17 10 19 17 14 5 1 3 1 13
7 7 6 8 10 12 14 7 6 4 11 9 10 14 12 14 11 15 15 14 13 13 10 7 7 9 8 4 11 4 4 5 8 11 11 16 3 4 12 5 4 14 5 3 5 4 3 3 6
18 13 14 10 13 12 10 11 11 11 7 12 4 8 9 10 15 14 15 15 14 12 10 8 7 6 7 6 5 4 4 4 3 12 14 7 6 3 10 14 11 11 5 8 5 4 9 6 5
12 20 17 18 16 9 12 12 10 13 15 12 9 7 7 11 12 16 14 14 16 16 11 9 9 7 5 3 2 4 4 1 3 4 6 3 4 7 8 6 17 18 10 9 5 6 9 4 7
10 6 13 14 12 11 13 10 14 12 12 9 9 6 3 15 7 14 15 17 12 16 15 11 10 9 7 4 3 4 5 6 4 4 4 4 4 2 6 7 4 12 2 2 7 5 5 5 3
13 4 15 17 13 9 20 4 16 17 15 14 13 10 15 7 18 10 19 15 21 17 17 14 13 9 8 5 3 5 3 4 3 2 4 4 5 3 5 6 1 8 6 7 1 4 5 5 5
15 5 8 5 5 14 19 5 9 17 16 19 14 18 13 10 16 22 15 17 17 16 16 15 13 11 7 7 4 3 5 1 4 5 6 4 1 1 7 3 2 3 1 1 3 4 5 2 4
11 11 13 13 13 13 15 11 12 18 21 22 19 21 20 13 13 13 14 4 13 16 15 16 14 11 8 8 7 6 6 2 4 4 4 5 6 4 4 3 4 3 4 5 3 2 3 2 1
14 11 12 13 13 6 11 8 3 22 22 24 23 22 23 20 19 21 17 3 7 17 17 16 16 12 11 11 10 8 6 4 5 3 4 4 3 2 5 3 3 2 3 4 2 4 4 5 2
11 15 13 5 5 10 4 4 1 3 10 5 20 21 18 17 14 14 18 14 3 11 13 16 17 14 13 11 10 8 6 5 4 4 5 5 3 3 3 4 5 6 5 3 3 3 4 3 3
16 11 17 1 9 10 4 2 7 10 12 14 17 20 18 20 15 13 4 11 18 8 13 17 16 15 13 12 8 8 7 8 2 7 3 1 4 5 5 8 5 3 4 4 3 4 5 2 3
16 8 9 4 9 11 5 2 1 10 5 14 19 20 17 15 15 8 13 11 7 12 5 15 16 16 15 13 11 9 9 7 3 4 1 3 5 5 4 8 3 2 4 4 2 5 5 5 5
10 13 9 12 4 6 4 1 8 8 6 1 16 19 20 18 16 13 14 12 17 14 19 18 17 16 13 12 12 12 11 10 8 6 7 7 5 4 4 5 3 4 5 4 2 6 4 6 11
13 19 14 9 5 10 5 1 5 21 3 4 4 12 17 15 11 9 3 11 15 8 9 6 15 14 13 13 11 10 10 7 9 8 9 8 7 5 6 5 4 4 4 3 2 5 8 5 6
Wind_Direction
253 243 231 336 219 260 141 147 74 63 62 68 55 67 61 46 52 98 352 140 122 119 125 111 109 114 117 113 113 113 105 102 100 98 94 96 106 100 102 105 101 100 102 98 94 92 101 98 104
251 251 202 117 254 164 101 79 89 96 88 87 65 87 76 74 82 101 121 97 112 116 113 117 111 119 118 111 108 106 109 105 101 97 93 94 103 102 107 101 102 100 96 90 87 92 104 106 97
252 264 317 261 247 94 76 78 93 83 47 71 78 51 64 106 95 122 130 124 115 93 105 118 114 116 120 113 108 102 96 96 95 93 95 99 103 109 109 102 104 100 92 89 88 93 116 107 101
260 208 253 213 234 118 86 105 109 113 145 96 97 83 84 110 116 113 144 123 118 105 104 112 117 112 111 110 110 106 95 91 93 89 96 105 114 112 109 109 109 100 94 91 93 104 111 126 108
224 232 9 287 108 83 77 82 74 119 119 93 92 96 119 108 121 135 149 116 100 107 113 114 111 115 106 102 101 99 96 80 92 98 105 112 116 118 115 118 115 111 105 101 90 113 106 118 129
342 81 339 320 89 86 74 111 156 101 116 102 98 105 110 133 124 140 102 118 117 117 123 117 110 113 107 103 106 104 96 75 86 111 124 119 122 122 129 127 129 128 122 114 114 121 130 133 137
165 208 209 264 99 89 91 80 108 104 113 116 124 118 120 125 131 120 124 108 111 111 115 119 115 114 105 101 113 111 111 98 85 125 138 137 136 142 145 143 146 151 141 140 145 152 155 158 176
248 140 316 305 102 161 93 79 93 112 117 116 130 130 137 144 136 143 127 130 137 122 124 118 116 107 114 119 115 117 127 145 183 174 169 167 159 159 155 163 164 167 166 180 193 194 186 194 205
265 196 195 262 109 142 107 90 81 106 126 155 116 134 160 132 117 123 145 128 113 111 128 127 119 113 109 114 123 123 141 179 190 183 196 198 172 172 167 181 161 182 198 203 210 206 203 214 228
11 66 47 15 176 160 99 117 148 120 114 117 113 142 146 146 131 138 140 124 126 185 65 125 125 139 154 135 137 139 164 209 241 228 212 208 233 168 160 177 188 199 210 216 222 210 213 224 222
97 8 116 158 271 319 126 138 121 136 134 127 131 136 157 146 143 148 137 118 134 97 71 326 118 165 182 160 177 186 179 196 31 296 264 199 160 164 172 178 194 210 214 217 225 233 217 219 218
148 215 350 35 46 45 10 342 88 118 223 122 129 154 154 145 152 118 110 127 125 138 149 182 140 192 196 199 194 204 197 212 166 223 231 212 194 34 346 227 178 207 205 219 212 189 214 99 62
139 128 59 16 42 16 127 349 318 131 163 123 137 155 171 144 165 137 149 147 157 136 164 193 167 201 202 231 220 218 92 275 242 196 80 294 95 194 218 43 14 302 175 129 135 194 218 149 57
131 142 134 53 28 26 31 20 303 105 117 131 149 161 174 160 156 156 135 155 144 140 145 178 192 200 205 208 207 210 153 221 193 85 100 44 358 297 306 55 100 281 213 108 141 162 270 189 142
137 131 142 126 39 23 6 359 2 356 139 151 161 172 173 169 152 147 142 139 144 145 151 149 157 160 178 184 233 261 311 128 150 111 107 144 213 184 78 237 270 205 146 132 132 240 258 273 141
134 110 137 193 163 184 98 244 296 317 338 147 181 147 164 196 166 155 144 156 145 135 138 163 154 155 182 117 331 56 298 286 123 152 172 209 290 351 44 300 271 19 27 341 155 238 228 15 231
18 128 166 213 206 148 179 173 235 313 336 291 162 169 139 272 181 152 154 164 149 135 142 211 146 143 126 126 28 245 218 55 85 66 323 182 288 32 109 229 316 24 17 348 328 267 51 253 95
162 263 93 303 174 175 190 185 196 204 296 298 254 171 167 172 165 161 161 168 156 139 151 197 151 133 129 154 171 237 19 332 109 110 322 293 259 61 147 124 4 49 15 223 311 354 9 357 19
174 151 136 254 170 173 199 192 196 207 242 276 275 293 188 174 174 160 169 150 151 144 159 148 141 131 143 171 144 221 169 269 124 142 185 256 309 19 31 111 58 31 306 267 354 349 12 353 43
175 156 146 176 173 163 174 195 183 189 238 222 201 225 316 297 177 162 159 160 155 153 161 155 137 148 230 199 220 163 179 2 282 124 163 138 295 16 56 47 115 160 262 324 337 16 74 7 302
253 251 155 138 190 193 174 183 184 210 232 251 221 204 312 266 10 177 163 164 140 151 157 166 149 162 215 250 122 29 119 36 272 155 150 179 249 205 56 33 46 123 161 262 290 357 97 197 215
258 12 147 161 197 191 190 186 195 198 211 221 230 204 197 244 260 260 167 179 163 160 161 162 153 183 203 229 180 213 185 201 181 208 131 162 197 262 171 133 333 127 186 231 38 46 355 8 354
258 355 276 240 253 261 185 239 195 186 213 224 208 211 221 191 185 226 190 175 171 167 159 161 161 178 203 157 155 227 261 19 344 147 125 93 263 249 265 141 78 35 25 45 34 44 17 335 357
284 264 243 260 239 251 234 210 167 183 201 206 209 197 198 198 213 280 253 300 162 164 157 159 166 173 174 181 175 229 294 285 5 185 178 187 185 201 234 210 107 313 346 355 359 354 282 322 346
246 251 259 242 236 260 4 220 115 189 200 196 193 185 199 184 170 213 218 214 251 156 166 159 161 171 167 204 180 202 228 135 231 263 200 231 39 5 181 196 135 193 263 296 307 326 308 294 353
222 247 256 277 292 309 46 326 331 341 138 177 177 185 194 199 197 192 206 175 214 245 169 160 162 170 182 193 177 197 200 227 216 229 281 73 44 340 287 187 183 193 229 239 290 310 286 33 15
260 222 262 25 262 258 184 306 295 226 146 151 165 176 189 201 173 141 232 204 188 175 179 152 162 170 178 193 182 191 188 232 269 18 50 126 117 284 338 285 202 216 206 206 259 292 300 316 343
257 303 303 214 265 263 191 343 279 2 131 173 173 186 196 210 204 153 164 225 258 205 167 169 162 172 180 185 174 188 202 216 197 179 100 298 293 149 212 251 332 299 277 286 222 276 353 28 312
216 238 233 266 112 304 336 7 351 326 300 233 202 191 194 198 180 168 188 215 235 233 182 175 165 172 177 190 181 183 194 193 204 211 202 197 204 156 257 283 300 315 316 307 293 296 289 147 250
304 302 249 235 214 226 270 202 352 285 326 48 310 156 187 196 151 123 287 166 251 300 152 142 169 173 178 189 177 180 189 190 194 199 218 193 195 189 220 253 263 278 288 300 192 276 289 326 321